"Pseudo-MPEC" for P10NTjU

Created 2019 May 30 0:07:17 UT using Find_Orb

Click here for an explanation of pseudo-MPECs

 
 Astrometry: 
     P10NTjU  C2019 05 11i`l79Tp1Astrometry*rWtbr[p2p*I-ay%fO9V6)=\t06kAt=RH%F51
     P10NTjU  C2019 05 11$)O%oE/-J[,O!6CWLtb*Rk%redacted;L.1tg6XpoMclickp$l#(F51
     P10NTjU  C2019 05 11'c1(yT_%Z4g[rsREi=t0-,'YherewZfor%Tb`=Nh=((B=pdxB]$tF51
     P10NTjU  C2019 05 11]G81Xy=_P6\0jEp-M9JUuGrk1explanationJ3H)b+PTp.S3GUd]F51
     P10NTjU  C2019 05 13.25869 15 54 16.55 +20 12 59.8    ~5D77 21.6 GVNEOCPI52
     P10NTjU  C2019 05 13.26326 15 54 16.14 +20 12 57.7    ~5D77       VNEOCPI52
     P10NTjU  C2019 05 13.26784 15 54 15.63 +20 12 55.7    ~5D77       VNEOCPI52
     P10NTjU  C2019 05 13.27242 15 54 15.10 +20 12 53.3    ~5D77       VNEOCPI52

Station data:
(F51) Pan-STARRS 1, Haleakala  (N20.707235 W156.255910)  US/Hawaii.
   Observers N. Primak, A. Schultz, S. Watters, J. Thiel, T. Goggia. Measurer
   PS1 Science Consortium. 1.8-m Ritchey-Chrétien + CCD.
(I52) Steward Observatory, Mt. Lemmon Station  (N32.442547 W110.788920)
   US/Arizona.  Observers T. A. Pruyne, B. M. Africano, E. J. Christensen, G.
   A. Farneth, D. C. Fuls, A. R. Gibbs, A. D. Grauer, H. Groeller, J. A.
   Johnson, R. A. Kowalski, S. M. Larson, G. J. Leonard, R. L. Seaman, F. C.
   Shelly. 1.0-m reflector + CCD.

Orbital elements:  P10NTjU
   Perihelion 2019 Jul 2.559431 +/- 9.31 TT = 13:25:34 (JD 2458667.059431)
Epoch 2019 May 13.0 TT = JDT 2458616.5   Earth MOID: 0.0031   AutoNEOCP
M 341.91519323 +/- 18               (J2000 ecliptic)
n   0.35769403 +/- 0.317            Peri.  242.79788 +/- 2.2
a   1.96544811 +/- 1.17             Node    58.46656 +/- 2.9
e   0.5866808 +/- 0.269             Incl.   22.33537 +/- 6
P   2.76                   H 25.6   G  0.15   U 12.0  
q 0.81235740 +/- 0.0551    Q 3.11853882 +/- 2.61
From 8 observations 2019 May 11-13 (41.4 hr); mean residual 1".96
Residuals in arcseconds: 
190511 F51  1.4+  4.7-    190511 F51  1.6-  4.8+    190513 I52  .60+  .46+    
190511 F51  .51+  1.5-    190513 I52  1.6-  1.4-    190513 I52  .79+  1.1+    
190511 F51  .36-  1.5+    190513 I52  .17+  .56-    

Ephemerides (geocentric):
Date (UTC) HH   RA              Dec         delta   r     elong  mag " sig PA
---- -- -- --  -------------   -----------  ------ ------ -----  --- ---- ---
2019 05 30 00  04 11 24.324   -23 07 11.54  .10379 .94296  44.9 26?? 332' 135
2019 05 30 01  04 11 22.320   -23 06 37.34  .10425 .94267  44.9 26?? 331' 135
2019 05 30 02  04 11 20.336   -23 06 03.27  .10470 .94238  44.9 26?? 329' 135
2019 05 30 03  04 11 18.370   -23 05 29.33  .10516 .94209  44.9 26?? 327' 135
2019 05 30 04  04 11 16.423   -23 04 55.51  .10562 .94180  44.9 26?? 326' 136
2019 05 30 05  04 11 14.495   -23 04 21.81  .10607 .94151  44.9 26?? 324' 136
2019 05 30 06  04 11 12.584   -23 03 48.24  .10653 .94123  44.9 26?? 323' 136
2019 05 30 07  04 11 10.691   -23 03 14.78  .10699 .94094  44.9 26?? 321' 136
2019 05 30 08  04 11 08.816   -23 02 41.44  .10745 .94065  44.9 26?? 319' 136
2019 05 30 09  04 11 06.959   -23 02 08.21  .10790 .94036  44.9 26?? 318' 136
2019 05 30 10  04 11 05.119   -23 01 35.09  .10836 .94007  44.9 26?? 316' 136
2019 05 30 11  04 11 03.295   -23 01 02.09  .10882 .93979  44.9 26?? 315' 136
2019 05 30 12  04 11 01.489   -23 00 29.19  .10927 .93950  44.9 26?? 313' 136
2019 05 30 13  04 10 59.700   -22 59 56.40  .10973 .93921  44.9 26?? 312' 136
2019 05 30 14  04 10 57.926   -22 59 23.70  .11019 .93893  44.9 26?? 310' 136
2019 05 30 15  04 10 56.170   -22 58 51.12  .11064 .93864  44.9 26?? 309' 136
2019 05 30 16  04 10 54.429   -22 58 18.63  .11110 .93835  44.9 26?? 308' 136
2019 05 30 17  04 10 52.704   -22 57 46.23  .11156 .93807  44.9 26?? 306' 136
2019 05 30 18  04 10 50.995   -22 57 13.94  .11201 .93778  44.9 26?? 305' 136
2019 05 30 19  04 10 49.302   -22 56 41.74  .11247 .93750  44.9 26?? 304' 136
2019 05 30 20  04 10 47.623   -22 56 09.62  .11293 .93721  44.9 26?? 302' 136
2019 05 30 21  04 10 45.961   -22 55 37.60  .11339 .93692  44.9 26?? 301' 136
2019 05 30 22  04 10 44.313   -22 55 05.67  .11384 .93664  44.9 26?? 300' 136
2019 05 30 23  04 10 42.680   -22 54 33.83  .11430 .93636  44.9 26?? 298' 136
2019 05 31 00  04 10 41.062   -22 54 02.07  .11476 .93607  44.9 26?? 297' 136
2019 05 31 01  04 10 39.458   -22 53 30.39  .11522 .93579  44.9 26?? 296' 136
2019 05 31 02  04 10 37.869   -22 52 58.79  .11567 .93550  44.9 26?? 295' 136
2019 05 31 03  04 10 36.294   -22 52 27.28  .11613 .93522  44.9 26?? 293' 136
2019 05 31 04  04 10 34.733   -22 51 55.84  .11659 .93493  44.9 26?? 292' 136
2019 05 31 05  04 10 33.187   -22 51 24.48  .11704 .93465  44.9 26?? 291' 136
2019 05 31 06  04 10 31.654   -22 50 53.20  .11750 .93437  44.9 26?? 290' 137
2019 05 31 07  04 10 30.134   -22 50 21.98  .11796 .93409  44.9 26?? 289' 137
2019 05 31 08  04 10 28.629   -22 49 50.85  .11842 .93380  44.9 26?? 287' 137
2019 05 31 09  04 10 27.136   -22 49 19.78  .11887 .93352  45.0 26?? 286' 137
2019 05 31 10  04 10 25.657   -22 48 48.78  .11933 .93324  45.0 26?? 285' 137
2019 05 31 11  04 10 24.191   -22 48 17.85  .11979 .93296  45.0 26?? 284' 137
2019 05 31 12  04 10 22.738   -22 47 46.98  .12025 .93267  45.0 26?? 283' 137
2019 05 31 13  04 10 21.298   -22 47 16.18  .12070 .93239  45.0 26?? 282' 137
2019 05 31 14  04 10 19.870   -22 46 45.44  .12116 .93211  45.0 26?? 281' 137
2019 05 31 15  04 10 18.456   -22 46 14.77  .12162 .93183  45.0 26?? 280' 137
2019 05 31 16  04 10 17.053   -22 45 44.16  .12208 .93155  45.0 26?? 279' 137
2019 05 31 17  04 10 15.663   -22 45 13.60  .12254 .93127  45.0 26?? 278' 137
2019 05 31 18  04 10 14.285   -22 44 43.11  .12299 .93099  45.0 26?? 277' 137
2019 05 31 19  04 10 12.920   -22 44 12.67  .12345 .93071  45.0 26?? 276' 137
2019 05 31 20  04 10 11.566   -22 43 42.29  .12391 .93043  45.0 26?? 275' 137
2019 05 31 21  04 10 10.224   -22 43 11.96  .12437 .93015  45.0 26?? 274' 137
2019 05 31 22  04 10 08.894   -22 42 41.68  .12482 .92987  45.0 26?? 273' 137
2019 05 31 23  04 10 07.576   -22 42 11.46  .12528 .92959  45.0 26?? 272' 137